This demonstration page uses our WeatherBlox Daily Observations layout. Learn more.

Left ArrowRight Arrow

47.50024, -111.30081

Hourly Observations for October 8, 2019

Temp ( °F °C ) Dew Point ( °F °C ) Humidity (%) Winds ( mph kmh ) Pressure ( in mb ) Visibility ( mi km ) Precip ( " mm )
12:53 am 00:53 Clear 57 13.9 30 -1.1 36 36 SW 21 33 29.62 1003 10 16 0.00 0.00
1:53 am 01:53 Clear 58 14.4 30 -1.1 35 35 SW 22 35 29.59 1002 10 16 0.00 0.00
2:53 am 02:53 Clear 57 13.9 29 -1.7 34 34 SW 17 28 29.57 1001 10 16 0.00 0.00
3:53 am 03:53 Clear 56 13.3 29 -1.7 36 36 SSW 20 31 29.53 1000 10 16 0.00 0.00
4:53 am 04:53 Clear 55 12.8 28 -2.2 35 35 SSW 15 24 29.52 1000 10 16 0.00 0.00
5:53 am 05:53 Clear 52 11.1 29 -1.7 41 41 SSW 13 20 29.51 999 10 16 0.00 0.00
6:53 am 06:53 Clear 53 11.7 28 -2.2 38 38 SSW 16 26 29.50 999 10 16 0.00 0.00
7:53 am 07:53 Sunny 55 12.8 27 -2.8 34 34 SW 17 28 29.49 999 10 16 0.00 0.00
8:53 am 08:53 undefined 57 13.9 28 -2.2 33 33 WSW 15 24 29.51 999 10 16 0.00 0.00
8:57 am 08:57 Mostly Sunny 58 14.4 29 -1.7 33 33 WSW 15 24 29.46 998 10 16 0.00 0.00
9:23 am 09:23 Mostly Cloudy 44 6.7 33 0.6 65 65 NNW 26 43 29.60 1002 10 16 0.00 0.00
9:53 am 09:53 Cloudy 38 3.3 32 0 79 79 NNW 25 41 29.64 1004 10 16 0.00 0.00
10:06 am 10:06 Cloudy 36 2.2 31 -0.6 82 82 NNW 25 41 29.72 1006 10 16 0.00 0.00
10:43 am 10:43 Cloudy 37 2.8 28 -2.2 70 70 NNW 24 39 29.76 1008 10 16 0.00 0.00
10:53 am 10:53 Cloudy 37 2.8 28 -2.2 70 70 N 22 35 29.72 1007 10 16 0.00 0.00
11:19 am 11:19 Cloudy 35 1.7 27 -2.8 72 72 NNW 20 31 29.83 1010 10 16 0.00 0.00
11:53 am 11:53 Cloudy with Light Wintry Mix 34 1.1 26 -3.3 73 73 N 16 26 29.77 1008 10 16 0.00 0.00
12:15 pm 12:15 Cloudy 34 1.1 27 -2.8 76 76 N 14 22 29.85 1011 10 16 0.00 0.00
12:35 pm 12:35 Cloudy with Light Wintry Mix 33 0.6 26 -3.3 75 75 NNW 14 22 29.88 1012 10 16 0.00 0.00
12:53 pm 12:53 Cloudy 32 0 26 -3.3 79 79 NNW 15 24 29.83 1010 10 16 0.00 0.00
1:18 pm 13:18 Cloudy with Light Snow 31 -0.6 26 -3.3 82 82 NNW 15 24 29.92 1013 3 4 0.00 0.00
1:23 pm 13:23 Cloudy with Light Snow 31 -0.6 26 -3.3 82 82 NNW 15 24 29.92 1013 2 2 0.00 0.00
1:28 pm 13:28 Cloudy with Light Snow 31 -0.6 27 -2.8 85 85 NNW 17 28 29.93 1014 1 1 0.00 0.00
1:53 pm 13:53 Cloudy with Light Snow 31 -0.6 27 -2.8 85 85 NNW 18 30 29.84 1010 1 1 0.01 0.25
2:00 pm 14:00 Cloudy with Light Snow 31 -0.6 27 -2.8 85 85 NNW 16 26 29.92 1013 1 1 0.00 0.00
2:04 pm 14:04 Cloudy with Light Snow 31 -0.6 27 -2.8 85 85 NNW 18 30 29.92 1013 2 3 0.00 0.00
2:12 pm 14:12 Cloudy with Light Snow 31 -0.6 26 -3.3 82 82 NNW 16 26 29.93 1014 3 5 0.00 0.00
2:28 pm 14:28 Cloudy with Light Snow 30 -1.1 25 -3.9 82 82 NNW 15 24 29.94 1014 3 5 0.00 0.00
2:35 pm 14:35 Cloudy with Light Snow 30 -1.1 25 -3.9 82 82 NNW 14 22 29.95 1014 2 3 0.00 0.00
2:42 pm 14:42 Cloudy with Light Snow 29 -1.7 25 -3.9 85 85 NNW 14 22 29.97 1015 1 2 0.01 0.25
2:48 pm 14:48 Cloudy with Light Snow 28 -2 25 -4 86 86 NNW 15 24 29.98 1015 1 1 0.01 0.25
2:49 pm 14:49 Cloudy with Light Snow 29 -1.7 25 -3.9 85 85 NNW 15 24 29.89 1012 1 1 0.01 0.25
2:54 pm 14:54 Cloudy with Light Snow 29 -1.7 25 -3.9 85 85 NNW 15 24 29.98 1015 1 2 0.01 0.25
3:14 pm 15:14 Mostly Cloudy with Light Snow 29 -1.7 24 -4.4 82 82 NNW 16 26 30.00 1016 1 1 0.02 0.51
3:27 pm 15:27 Cloudy with Snow 28 -2.2 25 -3.9 88 88 NNW 14 22 30.00 1016 1 1 0.04 1.02
3:53 pm 15:53 Cloudy with Snow 28 -2.2 24 -4.4 85 85 NNW 16 26 29.92 1013 1 1 0.06 1.52
4:07 pm 16:07 Cloudy with Snow 27 -2.8 24 -4.4 89 89 N 15 24 30.00 1016 1 1 0.01 0.25
4:24 pm 16:24 Mostly Cloudy with Heavy Snow 27 -2.8 24 -4.4 89 89 NNW 12 19 30.03 1017 0 0 0.03 0.76
4:37 pm 16:37 Cloudy with Light Snow 27 -2.8 24 -4.4 89 89 NNW 14 22 30.03 1017 1 2 0.04 1.02
4:49 pm 16:49 Cloudy with Light Snow 27 -3 23 -5 86 86 N 15 24 30.03 1017 1 1 0.04 1.02
4:53 pm 16:53 Cloudy with Snow 27 -2.8 23 -5 85 85 N 10 17 29.93 1014 1 1 0.04 1.02
5:24 pm 17:24 Cloudy with Light Snow 26 -3.3 23 -5 88 88 N 13 20 30.06 1018 1 1 0.02 0.51
5:46 pm 17:46 Cloudy with Light Snow 26 -3.3 23 -5 88 88 NNW 15 24 30.08 1019 1 1 0.03 0.76
5:53 pm 17:53 Cloudy with Snow 26 -3.3 23 -5 88 88 NNW 12 19 30.00 1016 1 1 0.03 0.76
6:04 pm 18:04 Mostly Cloudy with Heavy Snow 26 -3.3 23 -5 88 88 NNW 15 24 30.09 1019 0 0 0.01 0.25
6:34 pm 18:34 Mostly Cloudy with Snow 25 -3.9 22 -5.6 88 88 NNW 14 22 30.11 1020 1 1 0.06 1.52
6:43 pm 18:43 Mostly Cloudy with Snow 25 -3.9 22 -5.6 88 88 NNW 15 24 30.12 1020 0 0 0.07 1.78
6:48 pm 18:48 Mostly Cloudy with Snow 25 -4 21 -6 86 86 N 13 20 30.11 1020 1 1 0.08 2.03
6:53 pm 18:53 Mostly Cloudy with Light Snow 25 -3.9 22 -5.6 88 88 NNW 12 19 30.02 1017 1 1 0.08 2.03
7:03 pm 19:03 Cloudy with Light Snow 25 -3.9 22 -5.6 88 88 NNW 10 17 30.14 1021 1 2 0.00 0.00
7:46 pm 19:46 Mostly Cloudy with Light Snow 24 -4.4 21 -6.1 88 88 N 14 22 30.14 1021 1 1 0.03 0.76
7:53 pm 19:53 Cloudy with Light Snow 24 -4.4 21 -6.1 88 88 N 12 19 30.03 1017 1 2 0.04 1.02
8:12 pm 20:12 Cloudy with Light Snow 24 -4.4 21 -6.1 88 88 N 12 19 30.14 1021 1 2 0.00 0.00
8:20 pm 20:20 Cloudy with Light Snow 24 -4.4 21 -6.1 88 88 N 12 19 30.14 1021 2 3 0.00 0.00
8:27 pm 20:27 Cloudy with Light Snow 24 -4.4 21 -6.1 88 88 N 13 20 30.15 1021 2 3 0.00 0.00
8:53 pm 20:53 Cloudy with Light Snow 24 -4.4 21 -6.1 88 88 NNW 12 19 30.07 1018 2 3 0.01 0.25
9:17 pm 21:17 Cloudy with Light Snow 24 -4.4 21 -6.1 88 88 N 10 17 30.17 1022 1 1 0.00 0.00
9:27 pm 21:27 Mostly Cloudy with Light Snow 24 -4.4 21 -6.1 88 88 N 13 20 30.19 1022 1 1 0.02 0.51
9:37 pm 21:37 Mostly Cloudy with Light Snow 24 -4.4 21 -6.1 88 88 N 9 15 30.20 1023 1 1 0.03 0.76
9:53 pm 21:53 Mostly Cloudy with Light Snow 24 -4.4 21 -6.1 88 88 N 7 11 30.16 1021 1 1 0.06 1.52
10:05 pm 22:05 Cloudy with Light Snow 24 -4.4 21 -6.1 88 88 N 12 19 30.21 1023 1 2 0.00 0.00
10:25 pm 22:25 Mostly Cloudy with Light Snow 24 -4.4 21 -6.1 88 88 NNW 12 19 30.22 1023 1 1 0.02 0.51
10:53 pm 22:53 Mostly Cloudy with Light Snow 23 -5 20 -6.7 88 88 N 17 28 30.16 1022 1 1 0.04 1.02
11:12 pm 23:12 Cloudy with Light Snow 23 -5 20 -6.7 88 88 N 16 26 30.21 1023 1 2 0.02 0.51
11:24 pm 23:24 Cloudy with Light Snow 23 -5 20 -6.7 88 88 N 14 22 30.23 1024 2 3 0.02 0.51
11:53 pm 23:53 Cloudy with Light Snow 23 -5 20 -6.7 88 88 N 15 24 30.19 1022 2 3 0.02 0.51
11:57 pm 23:57 Cloudy with Light Snow 23 -5 20 -6.7 88 88 N 15 24 30.25 1024 1 2 0.00 0.00

Powered by AerisWeather